Flag for U.S.A. Weather past 2 weeks in Tallahassee, Florida, U.S.A.

Now
75 °F

Light rain. Passing clouds.


Feels Like: 74 °F
Forecast: 75 / 92 °F
Wind: 6 mph from Southeast

Location: Tallahassee Regional Airport

Current Time: Aug 31, 2014 at 6:37:49 AM

Latest Report: Aug 31, 2014 at 5:53 AM


Visibility: 10 mi

Pressure: 30.12 "Hg

Humidity: 90%

Dew point: 72 °F

Location of TallahasseeLocation

Historic Weather in Tallahassee — Graph

°F

Tallahassee temperature yesterday

Maximum temperature yesterday: 94 °F (at 1:53 PM)
Minimum temperature yesterday: 74 °F (at 6:53 AM)
Average temperature yesterday: 83 °F

Past Weeks' High & Low Weather Summary

 TemperatureHumidityPressure
High100 °F (Aug 22, 4:53 PM)94% (Aug 18, 2:53 AM)30.14 "Hg (Aug 18, 2:53 AM)
Low69 °F (Aug 28, 3:53 AM)30% (Aug 27, 5:53 PM)29.80 "Hg (Aug 24, 4:53 PM)
Average83 °F69%30.00 "Hg
* Reported Aug 16 4:53 AM — Aug 31 4:53 AM, Tallahassee, Weather by CustomWeather, © 2014

Note: Actual official high and low records may vary slightly from our data, if they occured in-between our weather recording intervals... More about our weather records

Advertising

Tallahassee weather history for previous 24 hours

 ConditionsComfort  
Time TempWeatherWind HumidityBarometerVisibility
4:53 AM
Aug 31
77 °FClear.No wind82%30.09 "Hg10 mi
3:53 AM77 °FClear.5 mph85%30.13 "Hg10 mi
2:53 AM78 °FPassing clouds.13 mph87%30.14 "Hg10 mi
1:53 AM77 °FPassing clouds.No wind90%30.13 "Hg10 mi
12:53 AM79 °FClear.No wind84%30.13 "Hg10 mi
11:53 PM
Aug 30
80 °FWarm.No wind85%30.11 "Hg10 mi
10:53 PM81 °FPassing clouds.No wind82%30.11 "Hg10 mi
9:53 PM81 °FPassing clouds.No wind82%30.09 "Hg10 mi
8:53 PM83 °FPartly sunny.3 mph74%30.08 "Hg10 mi
7:53 PM86 °FPartly sunny.5 mph67%30.06 "Hg10 mi
6:53 PM89 °FPartly sunny.5 mph57%30.05 "Hg10 mi
5:53 PM92 °FScattered clouds.9 mph51%30.04 "Hg10 mi
4:53 PM93 °FScattered clouds.7 mph50%30.04 "Hg10 mi
3:53 PM92 °FScattered clouds.No wind58%30.05 "Hg10 mi
3:00 PM84 °FBroken clouds.5 mph70%30.07 "Hg10 mi
1:53 PM94 °FBroken clouds.9 mph51%30.09 "Hg10 mi
12:53 PM93 °FBroken clouds.6 mph50%30.11 "Hg10 mi
11:53 AM89 °FBroken clouds.3 mph59%30.12 "Hg10 mi
10:53 AM88 °FBroken clouds.5 mph63%30.13 "Hg10 mi
9:53 AM84 °FPartly sunny.No wind80%30.12 "Hg10 mi
8:53 AM79 °FFog.3 mph88%30.11 "Hg1 mi
7:53 AM75 °FFog.No wind94%30.11 "Hg3 mi
6:53 AM74 °FFog.No wind94%30.09 "Hg0 mi
Weather by CustomWeather, © 2014

See weather overviewHow to use our weather pages